7 * 24
多渠道服务支持
STARLINK-34444 是 SpaceX 星链计划中的一颗低轨通信卫星,属于第 6 批次发射的星链卫星群。该卫星部署在约 550 公里的轨道高度,旨在为全球用户提供高速互联网服务。它采用先进的推进和通信技术,支持星间链路,减少地面基站依赖。星链项目计划发射数万颗卫星,构建覆盖全球的宽带网络,尤其服务于偏远地区。STARLINK-34444 的运行有助于提升网络覆盖率与连接稳定性。
美国
(US)
| 数据来源 | 国际轨道数据 |
| 星历时间: | 2025-11-08T19:42:02+0800 1天前 查看轨道信息 |
| 半长轴: | 6950.18km |
| 偏心率: | 0.0003287 |
| 轨道倾角: | 70.002° |
| 近地点辐角 | 267.610° |
| 升交点赤经 | 340.178° |
| 平近点角 | 92.468° |
| 近地点: | 569.76km |
| 远地点: | 574.33km |
| 周期: | 96.107分钟 |
| 每日圈数: | 14.983344 |